CSCLC EBAW-EBBR

Flight info

Callsign CSCLC
Flight time N/A
Altitude 1000
Route KONTI WISKY MECHELEN PEUTIE
Aircraft CL60/M-SBDE1E2E3FGHIJ1J4J5J7M3RWXYZ/LB1V1D1

Departure

Time 2026-04-24 16:26
Airport Antwerp International Airport (Deurne) (EBAW)

Arrival

Time N/A
Airport Brussels Airport (EBBR)
Time Latitude Longitude Altitude Speed Heading
2026-04-24 15:43 51.18847 4.45358 46 ft 0 kts 328°
2026-04-24 16:20 51.18863 4.45344 46 ft 3 kts 345°
2026-04-24 16:20 51.18944 4.45386 46 ft 7 kts 44°
2026-04-24 16:20 51.18980 4.45460 46 ft 10 kts 53°
2026-04-24 16:21 51.19088 4.45443 45 ft 8 kts 321°
2026-04-24 16:21 51.19127 4.45395 45 ft 4 kts 321°
2026-04-24 16:21 51.19164 4.45348 45 ft 9 kts 321°
2026-04-24 16:22 51.19205 4.45314 45 ft 6 kts 345°
2026-04-24 16:22 51.19214 4.45363 45 ft 0 kts 110°
2026-04-24 16:25 51.19213 4.45364 45 ft 1 kts 110°
2026-04-24 16:25 51.19115 4.45792 46 ft 105 kts 109°
2026-04-24 16:25 51.18749 4.47402 254 ft 187 kts 109°
2026-04-24 16:26 51.17839 4.51011 1012 ft 158 kts 107°
2026-04-24 16:26 51.17439 4.52630 966 ft 152 kts 108°
2026-04-24 16:26 51.16386 4.55467 1100 ft 158 kts 150°
2026-04-24 16:27 51.15316 4.55483 988 ft 156 kts 210°
2026-04-24 16:27 51.14775 4.54211 898 ft 137 kts 256°
2026-04-24 16:27 51.14506 4.52769 818 ft 133 kts 255°
2026-04-24 16:27 51.14222 4.51346 815 ft 133 kts 255°
2026-04-24 16:28 51.13923 4.49945 903 ft 134 kts 253°
2026-04-24 16:28 51.13600 4.48546 988 ft 137 kts 251°
2026-04-24 16:28 51.12754 4.45816 1001 ft 137 kts 246°
2026-04-24 16:29 51.12426 4.44403 1009 ft 136 kts 256°
2026-04-24 16:29 51.12147 4.42937 1023 ft 137 kts 257°
2026-04-24 16:29 51.11027 4.40515 965 ft 140 kts 221°
2026-04-24 16:30 51.09487 4.38591 963 ft 141 kts 220°
2026-04-24 16:30 51.08716 4.37622 985 ft 141 kts 221°
2026-04-24 16:30 51.07912 4.36714 967 ft 143 kts 202°
2026-04-24 16:31 51.06942 4.36712 895 ft 140 kts 149°
2026-04-24 16:31 51.06162 4.37599 896 ft 137 kts 137°
2026-04-24 16:31 51.05441 4.38582 949 ft 139 kts 135°
2026-04-24 16:31 51.04725 4.39616 977 ft 139 kts 134°
2026-04-24 16:32 51.04003 4.40665 992 ft 140 kts 133°
2026-04-24 16:32 51.03278 4.41721 1009 ft 139 kts 133°
2026-04-24 16:32 51.02566 4.42779 1007 ft 139 kts 132°
2026-04-24 16:32 51.01863 4.43843 1008 ft 139 kts 133°
2026-04-24 16:33 51.01161 4.44889 1008 ft 139 kts 133°
2026-04-24 16:33 51.00421 4.45883 977 ft 142 kts 148°
2026-04-24 16:33 50.99456 4.46209 936 ft 142 kts 176°
2026-04-24 16:33 50.98461 4.46233 927 ft 142 kts 179°
2026-04-24 16:34 50.97471 4.46214 933 ft 143 kts 179°
2026-04-24 16:34 50.96471 4.46181 954 ft 143 kts 180°
2026-04-24 16:34 50.95476 4.46099 961 ft 144 kts 182°
2026-04-24 16:34 50.94481 4.45993 972 ft 143 kts 181°
2026-04-24 16:35 50.93539 4.46371 969 ft 139 kts 135°
2026-04-24 16:35 50.93187 4.47672 990 ft 129 kts 82°
2026-04-24 16:35 50.93457 4.48992 981 ft 126 kts 65°
2026-04-24 16:35 50.93769 4.50296 971 ft 127 kts 66°
2026-04-24 16:36 50.94065 4.51632 972 ft 128 kts 67°
2026-04-24 16:36 50.94341 4.52962 1026 ft 124 kts 67°
2026-04-24 16:36 50.94595 4.54299 1092 ft 129 kts 69°
2026-04-24 16:36 50.94854 4.55659 1092 ft 130 kts 69°
2026-04-24 16:37 50.95093 4.57059 1011 ft 130 kts 74°
2026-04-24 16:37 50.95011 4.58481 999 ft 135 kts 108°
2026-04-24 16:37 50.94290 4.59390 1035 ft 144 kts 173°
2026-04-24 16:37 50.93530 4.58524 1026 ft 143 kts 252°
2026-04-24 16:38 50.93169 4.57075 950 ft 140 kts 250°
2026-04-24 16:38 50.91913 4.52528 495 ft 138 kts 249°